#timestamp,LO_Frequency,Hit,StdDev 
1571061615.3,286047002.5,P
1571061635.1,286047000.2,N
1571061655.9,286047000.9,N
1571061675.7,286046999.2,N
1571061695.5,286046997.4,N
1571061715.4,286046995.5,N
1571061735.2,286046997.9,N
1571061755.1,286046995.5,N
1571061756.0,286046995.5,N
1571061775.8,286046993.7,N
1571061795.6,286046995.2,N
1571061815.5,286046997.4,N
1571061835.3,286046998.3,N
1571061855.1,286046998.6,N
1571061875.9,286047002.8,N
1571061895.7,286046999.8,N
1571061915.6,286046998.2,N
1571061935.4,286046999.4,N
1571061955.2,286046999.6,N
1571061975.1,286046997.2,N
1571061976.0,286046997.2,N
1571061995.8,286046995.0,N
1571062015.6,286046995.9,N
1571062035.5,286046995.4,N
1571062055.3,286046995.6,N
1571062075.1,286046997.8,N
1571062095.9,286046995.5,N
1571062115.7,286046994.9,N
1571062135.6,286046995.2,N
1571062155.4,286046996.2,N
1571062175.2,286046995.6,N
1571062195.1,286046995.9,N
1571062196.0,286046995.9,N
1571062215.8,286046996.0,N
1571062235.6,286046998.0,N
1571062255.5,286046999.1,N
1571062275.3,286047000.7,N
1571062295.2,286047002.1,N
1571062315.9,286047004.0,N
1571062335.7,286047004.2,N
1571062355.6,286047005.9,N
1571062375.4,286047005.3,N
1571062395.2,286047005.1,N
1571062415.1,286047004.8,N
1571062416.0,286047004.8,N
1571062435.8,286047003.2,N
1571062455.7,286047004.4,N
1571062475.5,286047001.5,N
1571062495.3,286047004.3,N
1571062515.2,286047002.3,N
1571062535.0,286047002.2,N
1571062535.9,286047002.2,N
1571062555.8,286046999.7,N
1571062575.6,286046998.6,N
1571062595.4,286046998.8,N
1571062615.3,286046999.3,N
1571062635.1,286046997.8,N
1571062655.8,286046996.6,N
1571062675.7,286046997.1,N
1571062695.5,286046997.1,N
1571062715.4,286046998.6,N
1571062735.2,286046996.5,N
1571062755.0,286047000.7,N
1571062755.9,286047000.7,N
1571062775.8,286047000.2,N
1571062795.6,286047002.8,N
1571062815.4,286046999.8,N
1571062835.3,286047001.8,N
1571062855.1,286047001.4,N
1571062875.9,286047004.4,N
1571062895.7,286047006.0,N
1571062915.5,286047004.3,N
1571062935.4,286047001.5,N
1571062955.2,286047002.2,N
1571062975.0,286046998.6,N
1571062975.9,286046998.6,N
1571062995.8,286046998.6,N
1571063015.6,286046998.6,N
1571063035.5,286047001.1,N
1571063055.3,286046999.5,N
1571063075.1,286046999.0,N
1571063095.9,286046997.7,N
1571063115.7,286046995.1,N
1571063135.5,286046993.7,N
1571063185.4,286046996.3,E
1571063195.3,286046996.2,N
1571063215.2,286046997.0,P
1571063235.0,286046999.2,N
1571063235.9,286046999.2,N
1571063255.8,286046996.7,N
1571063275.6,286046999.6,N
1571063295.4,286046998.8,N
1571063315.3,286046999.7,N
1571063335.1,286046998.2,N
1571063336.0,286046998.2,N
1571063355.8,286046995.0,Y
1571063375.7,286046996.7,P
1571063395.5,286046997.8,N
1571063415.4,286046995.4,P
1571063435.2,286046995.5,Y
1571063455.0,286046999.5,P
1571063455.9,286046999.5,N
1571063475.8,286046998.3,N
1571063495.6,286046999.9,N
1571063515.4,286047002.8,N
1571063535.3,286047000.2,N
1571063555.1,286047001.1,N
1571063575.9,286047001.2,N
1571063595.7,286047000.9,N
1571063615.5,286047002.8,N
1571063635.4,286047002.6,N
1571063655.2,286047000.3,N
1571063675.0,286047000.9,N
1571063675.9,286047000.9,N
1571063695.8,286046998.2,N
1571063715.6,286047001.0,N
1571063735.5,286047000.3,N
1571063755.3,286046999.1,N
1571063775.1,286046999.2,N
1571063795.9,286046997.2,N
1571063815.7,286046997.9,N
1571063835.5,286046997.5,N
1571063855.4,286046997.4,N
1571063875.2,286046997.0,N
1571063895.1,286046997.6,N
1571063896.0,286046997.6,N
1571063915.8,286046999.3,N
1571063935.6,286046999.1,N
1571063955.5,286046999.4,N
1571063975.3,286046999.6,N
1571063995.1,286046994.9,Y
1571064015.9,286046995.0,P
1571064035.7,286046999.4,N
1571064055.6,286046999.6,N
1571064075.4,286046996.6,N
1571064095.2,286046996.6,N
1571064115.1,286046997.1,N
1571064116.0,286046997.1,N
1571064135.8,286046997.3,N
1571064155.7,286046996.6,N
1571064175.5,286046998.0,N
1571064195.3,286046997.7,N
1571064215.2,286046995.0,Y
1571064235.0,286046998.4,P
1571064235.9,286046998.4,P
1571064255.7,286046998.5,P
1571064275.6,286047001.1,N
1571064295.4,286047000.1,N
1571064315.3,286047000.7,N
1571064335.1,286046999.3,N
1571064336.0,286046999.3,N
1571064355.8,286047000.2,N
1571064375.7,286047002.2,N
1571064395.5,286047002.2,N
1571064415.3,286047001.7,N
1571064435.2,286047002.2,N
1571064455.0,286047002.5,N
1571064455.9,286047002.5,N
1571064475.8,286047002.0,N
1571064495.6,286047001.6,N
1571064515.4,286047001.7,N
1571064535.3,286047003.5,N
1571064555.1,286047002.2,N
1571064575.8,286047002.7,N
1571064595.7,286047002.6,N
1571064615.5,286047002.2,N
1571064635.4,286047001.5,N
1571064655.2,286047003.5,N
1571064675.0,286047003.0,N
1571064675.9,286047003.0,N
1571064695.8,286047003.1,N
1571064715.6,286047001.5,N
1571064735.4,286047002.8,N
1571064755.3,286047001.2,N
1571064775.1,286046998.6,N
1571064795.9,286046999.0,N
1571064815.7,286046998.9,N
1571064835.5,286046996.7,N
1571064855.4,286046997.3,N
1571064875.2,286046997.0,N
1571064895.0,286046997.7,N
1571064895.9,286046997.7,N
1571064915.8,286046997.9,N
1571064935.6,286046996.5,N
1571064955.5,286046997.4,N
1571064975.3,286046997.5,N
1571064995.1,286046997.9,N
1571065015.9,286046997.6,N
1571065035.7,286046996.5,N
1571065055.5,286046996.9,N
1571065075.4,286046999.4,N
1571065095.2,286046997.0,N
1571065115.1,286046998.1,N
1571065116.0,286046998.1,N
1571065135.8,286047001.1,N
1571065155.6,286047000.7,N
1571065175.5,286046999.9,N
1571065195.3,286047001.6,N
